Location: Dehesa de la Cepeda
(40.6574°N, 4.3013°W)
Time: 21:06:18
(UTC+00:00)

Vanguard 3 - Pass Details

Date: 05 August 2021
Orbit: 510 x 3260 km, 33.3° (Epoch: 22 September)

Event Time Altitude Azimuth Distance (km) Brightness Sun altitude
Rises 01:23:56 0° 275° (W) 7,228 11.9 -30.7°
Reaches altitude 10° 01:34:15 10° 250° (WSW) 6,047 11.2 -30.1°
Enters shadow 01:34:32 10° 249° (WSW) 6,022 11.2 -30.1°
